Retour au catalogue

USA 391

ActifMilitaireVLEO
NORAD 60174·PAYLOAD·🇺🇸 United States

Lancé Jun 29, 2024 depuis Vandenberg Space Force Base

Loading…

Prochains Passages (prochaines 24 heures)

TLE

PériméSource: Mike McCants

Époque: Aug 15, 2024, 20:31 UTC

1 60174U 24121S   24228.85535693 0.00000000  00000-0  00000-0 0    03
2 60174  70.0000 272.2608 0001000 329.4395  30.5604 14.96715000    01

Suivez USA 391 en temps réel avec AllMySat

Download on the App Store